Meteo orario Ali-Kuyu

Oggi, 27 Ottobre, Martedi

Tempo Temperatura Precipitazioni Vento Pressione Umidità
00:00 +10°C° 0 mm 4 m/s 758 mm Hg 83%
01:00 +10°C° 0 mm 4 m/s 758 mm Hg 83%
02:00 +10°C° 0 mm 4 m/s 758 mm Hg 82%
03:00 +10°C° 0 mm 4 m/s 759 mm Hg 84%
04:00 +10°C° 0 mm 4 m/s 759 mm Hg 83%
05:00 +10°C° 0 mm 4 m/s 759 mm Hg 82%
06:00 +10°C° 0 mm 4 m/s 759 mm Hg 81%
07:00 +11°C° 0 mm 4 m/s 759 mm Hg 75%
08:00 +12°C° 0 mm 5 m/s 759 mm Hg 68%
09:00 +13°C° 0 mm 6 m/s 760 mm Hg 61%
10:00 +14°C° 0 mm 5 m/s 760 mm Hg 58%
11:00 +15°C° 0 mm 5 m/s 760 mm Hg 55%
12:00 +16°C° 0 mm 5 m/s 760 mm Hg 52%
13:00 +17°C° 0 mm 6 m/s 760 mm Hg 50%
14:00 +17°C° 0 mm 6 m/s 760 mm Hg 48%
15:00 +18°C° 0 mm 7 m/s 760 mm Hg 46%
16:00 +16°C° 0 mm 7 m/s 760 mm Hg 50%
17:00 +15°C° 0 mm 7 m/s 760 mm Hg 55%
18:00 +13°C° 0 mm 6 m/s 760 mm Hg 59%
19:00 +11°C° 0 mm 6 m/s 761 mm Hg 62%
20:00 +11°C° 0 mm 6 m/s 761 mm Hg 65%
21:00 +10°C° 0 mm 6 m/s 761 mm Hg 68%
22:00 +10°C° 0 mm 6 m/s 761 mm Hg 68%
23:00 +10°C° 0 mm 6 m/s 761 mm Hg 68%

Domani, 28 Ottobre, Mercoledi

Tempo Temperatura Precipitazioni Vento Pressione Umidità
00:00 +10°C° 0 mm 5 m/s 761 mm Hg 68%
01:00 +10°C° 0 mm 5 m/s 760 mm Hg 68%
02:00 +10°C° 0 mm 6 m/s 760 mm Hg 68%
03:00 +10°C° 0 mm 6 m/s 760 mm Hg 67%
04:00 +10°C° 0 mm 6 m/s 760 mm Hg 70%
05:00 +10°C° 0 mm 6 m/s 760 mm Hg 73%
06:00 +10°C° 0 mm 6 m/s 760 mm Hg 76%
07:00 +11°C° 0 mm 7 m/s 760 mm Hg 73%
08:00 +12°C° 0 mm 8 m/s 760 mm Hg 69%
09:00 +15°C° 0 mm 9 m/s 760 mm Hg 66%
10:00 +16°C° 0 mm 9 m/s 759 mm Hg 61%
11:00 +17°C° 0 mm 9 m/s 759 mm Hg 57%
12:00 +19°C° 0 mm 9 m/s 758 mm Hg 52%
13:00 +18°C° 0 mm 9 m/s 758 mm Hg 53%
14:00 +18°C° 0 mm 9 m/s 758 mm Hg 53%
15:00 +18°C° 0 mm 9 m/s 758 mm Hg 54%
16:00 +17°C° 0 mm 8 m/s 758 mm Hg 59%
17:00 +15°C° 0 mm 7 m/s 758 mm Hg 64%
18:00 +14°C° 0 mm 7 m/s 758 mm Hg 69%
19:00 +14°C° 0 mm 7 m/s 758 mm Hg 72%
20:00 +14°C° 0 mm 7 m/s 758 mm Hg 75%
21:00 +14°C° 0 mm 7 m/s 758 mm Hg 78%
22:00 +14°C° 0 mm 6 m/s 758 mm Hg 79%
23:00 +14°C° 0 mm 6 m/s 757 mm Hg 80%

Dopodomani, 29 Ottobre, Giovedi

Tempo Temperatura Precipitazioni Vento Pressione Umidità
00:00 +14°C° 0 mm 6 m/s 757 mm Hg 81%
01:00 +13°C° 0 mm 5 m/s 757 mm Hg 84%
02:00 +13°C° 0 mm 5 m/s 757 mm Hg 86%
03:00 +13°C° 0 mm 5 m/s 756 mm Hg 89%
04:00 +13°C° 0 mm 5 m/s 756 mm Hg 88%
05:00 +13°C° 0 mm 5 m/s 757 mm Hg 87%
06:00 +13°C° 0 mm 5 m/s 757 mm Hg 87%
07:00 +14°C° 0 mm 5 m/s 757 mm Hg 84%
08:00 +15°C° 0 mm 6 m/s 756 mm Hg 82%
09:00 +16°C° 0 mm 7 m/s 756 mm Hg 80%
10:00 +17°C° 0 mm 7 m/s 756 mm Hg 75%
11:00 +18°C° 0 mm 7 m/s 756 mm Hg 71%
12:00 +20°C° 0 mm 7 m/s 756 mm Hg 66%
13:00 +20°C° 0 mm 8 m/s 756 mm Hg 65%
14:00 +20°C° 0 mm 8 m/s 755 mm Hg 64%
15:00 +20°C° 0 mm 8 m/s 755 mm Hg 62%
16:00 +18°C° 0 mm 7 m/s 755 mm Hg 67%
17:00 +17°C° 0 mm 7 m/s 755 mm Hg 72%
18:00 +16°C° 0 mm 6 m/s 755 mm Hg 77%
19:00 +15°C° 0 mm 6 m/s 755 mm Hg 79%
20:00 +15°C° 0 mm 6 m/s 755 mm Hg 80%
21:00 +15°C° 0 mm 6 m/s 755 mm Hg 82%
22:00 +14°C° 0 mm 5 m/s 755 mm Hg 84%
23:00 +14°C° 0 mm 5 m/s 754 mm Hg 86%

30 Ottobre, Venerdi

Tempo Temperatura Precipitazioni Vento Pressione Umidità
00:00 +14°C° 0 mm 4 m/s 754 mm Hg 87%
01:00 +14°C° 0 mm 4 m/s 754 mm Hg 87%
02:00 +14°C° 0 mm 4 m/s 754 mm Hg 87%
03:00 +14°C° 0 mm 4 m/s 753 mm Hg 87%
04:00 +14°C° 0 mm 4 m/s 753 mm Hg 87%
05:00 +14°C° 0 mm 4 m/s 753 mm Hg 87%
06:00 +15°C° 0 mm 4 m/s 753 mm Hg 87%
07:00 +16°C° 0 mm 3 m/s 754 mm Hg 85%
08:00 +16°C° 0 mm 2 m/s 754 mm Hg 83%
09:00 +18°C° 0 mm 1 m/s 754 mm Hg 81%
10:00 +17°C° 0 mm 2 m/s 754 mm Hg 78%
11:00 +17°C° 0 mm 2 m/s 754 mm Hg 75%
12:00 +18°C° 0 mm 2 m/s 754 mm Hg 72%
13:00 +18°C° 0 mm 2 m/s 754 mm Hg 71%
14:00 +18°C° 0 mm 2 m/s 754 mm Hg 70%
15:00 +18°C° 0 mm 2 m/s 754 mm Hg 69%
16:00 +17°C° 0 mm 2 m/s 754 mm Hg 72%
17:00 +17°C° 0 mm 2 m/s 754 mm Hg 74%
18:00 +16°C° 0 mm 2 m/s 755 mm Hg 77%
19:00 +16°C° 0 mm 2 m/s 755 mm Hg 81%
20:00 +15°C° 0 mm 1 m/s 755 mm Hg 85%
21:00 +14°C° 0 mm 1 m/s 755 mm Hg 89%
22:00 +14°C° 0 mm 1 m/s 754 mm Hg 90%
23:00 +13°C° 0 mm 1 m/s 754 mm Hg 92%

31 Ottobre, Sabato

Tempo Temperatura Precipitazioni Vento Pressione Umidità
00:00 +13°C° 0 mm 1 m/s 754 mm Hg 94%
01:00 +13°C° 0 mm 1 m/s 754 mm Hg 95%
02:00 +12°C° 0 mm 1 m/s 754 mm Hg 95%
03:00 +12°C° 0 mm 2 m/s 754 mm Hg 96%
04:00 +12°C° 0 mm 2 m/s 754 mm Hg 97%
05:00 +12°C° 0 mm 2 m/s 754 mm Hg 97%
06:00 +12°C° 0 mm 2 m/s 754 mm Hg 98%
07:00 +13°C° 0 mm 1 m/s 754 mm Hg 95%
08:00 +14°C° 0 mm 1 m/s 754 mm Hg 92%
09:00 +14°C° 0 mm 1 m/s 754 mm Hg 89%
10:00 +15°C° 0 mm 1 m/s 754 mm Hg 86%
11:00 +16°C° 0 mm 1 m/s 753 mm Hg 82%
12:00 +18°C° 0 mm 1 m/s 753 mm Hg 78%
13:00 +18°C° 0 mm 1 m/s 753 mm Hg 74%
14:00 +19°C° 0 mm 1 m/s 753 mm Hg 70%
15:00 +20°C° 0 mm 1 m/s 753 mm Hg 66%
16:00 +18°C° 0 mm 1 m/s 753 mm Hg 72%
17:00 +16°C° 0 mm 1 m/s 754 mm Hg 78%
18:00 +15°C° 0 mm 1 m/s 754 mm Hg 84%
19:00 +15°C° 0 mm 1 m/s 754 mm Hg 85%
20:00 +14°C° 0 mm 1 m/s 755 mm Hg 87%
21:00 +14°C° 0 mm 1 m/s 755 mm Hg 88%
22:00 +14°C° 0 mm 1 m/s 755 mm Hg 89%
23:00 +14°C° 0 mm 1 m/s 756 mm Hg 90%

1 Novenbre, Domenica

Tempo Temperatura Precipitazioni Vento Pressione Umidità
00:00 +12°C° 0 mm 0 m/s 756 mm Hg 91%
01:00 +13°C° 0 mm 1 m/s 756 mm Hg 91%
02:00 +13°C° 0 mm 1 m/s 756 mm Hg 91%
03:00 +13°C° 0 mm 1 m/s 757 mm Hg 90%
04:00 +13°C° 0 mm 1 m/s 757 mm Hg 90%
05:00 +12°C° 0 mm 0 m/s 757 mm Hg 90%
06:00 +12°C° 0 mm 0 m/s 757 mm Hg 90%
07:00 +13°C° 0 mm 0 m/s 757 mm Hg 87%
08:00 +15°C° 0 mm 1 m/s 757 mm Hg 83%
09:00 +16°C° 0 mm 1 m/s 758 mm Hg 80%
10:00 +18°C° 0 mm 1 m/s 757 mm Hg 75%
11:00 +18°C° 0 mm 2 m/s 757 mm Hg 70%
12:00 +19°C° 0 mm 3 m/s 757 mm Hg 66%
13:00 +19°C° 0 mm 3 m/s 757 mm Hg 63%
14:00 +20°C° 0 mm 3 m/s 757 mm Hg 60%
15:00 +20°C° 0 mm 3 m/s 757 mm Hg 56%
16:00 +19°C° 0 mm 3 m/s 757 mm Hg 60%
17:00 +18°C° 0 mm 3 m/s 758 mm Hg 63%
18:00 +17°C° 0 mm 3 m/s 758 mm Hg 66%
19:00 +16°C° 0 mm 3 m/s 758 mm Hg 65%
20:00 +16°C° 0 mm 3 m/s 759 mm Hg 65%
21:00 +14°C° 0 mm 3 m/s 759 mm Hg 64%
22:00 +14°C° 0 mm 2 m/s 759 mm Hg 63%
23:00 +14°C° 0 mm 2 m/s 759 mm Hg 61%
Mostrare altro

Abbiamo bisogno del tuo consenso

Meteoprog e i nostri fornitori di servizi possono memorizzare e accedere a dati personali come cookie, identificatori di dispositivi o altre tecnologie simili sul tuo dispositivo e possono elaborare tali dati per personalizzare i contenuti e gli annunci, nonché fornire funzionalità dei social media e analizzarne il traffico.

  • Archiviare e/o accedere alle informazioni sul tuo dispositivo

    Cookie, identificatori di dispositivi o altre informazioni possono essere memorizzati o resi accessibili sul tuo dispositivo per le finalità sopra indicate.

  • Annunci e contenuti personalizzati, misurazione di annunci e contenuti, approfondimenti sul pubblico e sviluppo di prodotti

    Gli annunci e i contenuti possono essere personalizzati in base a un profilo. È possibile aggiungere più dati per personalizzare meglio annunci e contenuti. È possibile misurare il rendimento degli annunci e dei contenuti. È possibile ricavare informazioni sul pubblico che ha visto gli annunci e i contenuti. Tali dati possono essere utilizzati per sviluppare o migliorare l'esperienza, i sistemi e il software dell'utente.

Cliccando su “Accetto”, acconsenti all'uso di cookie, identificatori di dispositivo, web beacon o altre tecnologie simili. Puoi modificare le impostazioni nel browser del tuo dispositivo.

Per determinati scopi, è possibile fare affidamento su interessi legali, piuttosto che sul consenso. Puoi approfondire questo argomento consultando la nostra Informativa sulla privacy e sui cookie.